Regional Weather Roundup
Issued by NWS Charleston, SC

Current Version | Previous Version | Graphics & Text | Print | Product List | Glossary On
Versions: 1 2 3 4 5 6 7 8 9 10 11 12 13 14 15 16 17 18 19 20 21 22 23 24 25 26 27 28 29 30 31 32 33 34 35 36 37 38 39 40 41 42 43 44 45 46 47 48 49 50
352
ASUS42 KCHS 282327
RWRCHS

REGIONAL WEATHER ROUNDUP
NATIONAL WEATHER SERVICE CHARLESTON SC
700 PM EDT TUE MAR 28 2017

NOTE: "FAIR" INDICATES FEW OR NO CLOUDS BELOW 12,000 FEET WITH NO
SIGNIFICANT WEATHER AND/OR OBSTRUCTIONS TO VISIBILITY.

NOT ALL STATIONS ARE QUALITY CONTROLLED. USE DATA WITH CAUTION...
ESPECIALLY DEWPOINT OBSERVATIONS.

SCZ027-030-031-034>040-042>050-290000-
...SOUTHEAST SOUTH CAROLINA...

CITY           SKY/WX    TMP DP  RH WIND       PRES   REMARKS
N CHARLESTON   MOCLDY    70  63  78 SW10      29.91R
WATERFRONT PRK   N/A     71  63  75 SW8       29.90R
JOHNS ISLAND   LGT RAIN  70  64  83 W8G14     29.95R
PINOPOLIS        N/A     73  64  73 SW7       29.81S
MONCKS CORNER  FAIR      75  57  53 SW5       29.90R
SUMMERVILLE    FAIR      73  66  78 S3        29.91R
BEAUFORT MCAS  CLOUDY    70  69  97 SE3       29.92S
BEAUFORT ARPT  FAIR      68  66  94 S5        29.93S FOG
HILTON HEAD IS PTCLDY    72  63  73 S15       29.94R
WALTERBORO     PTCLDY    72  68  88 CALM      29.92S
ALLENDALE      FAIR      81  57  44 VRB7      29.90R

...SOUTHERN MIDLANDS AND PEE DEE...

CITY           SKY/WX    TMP DP  RH WIND       PRES   REMARKS
GEORGETOWN     FAIR      72  61  68 S6        29.90S
KINGSTREE      FAIR      79  54  41 SW7       29.88R
ORANGEBURG     CLEAR     81  56  42 W12       29.89R
BARNWELL       FAIR      82  59  44 W6        29.91R
AIKEN          FAIR      77  55  47 W8        29.95R
MANNING        FAIR      79  55  44 CALM      29.89R
COLUMBIA       PTCLDY    82  57  42 W10       29.88R
SUMTER         CLEAR     80  58  46 W10       29.86R
FLORENCE       CLEAR     81  56  42 W10       29.86S
MYRTLE BEACH   PTCLDY    70  61  73 S14       29.89R
N MYRTLE BEACH MOCLDY    67  62  84 SW17G25   29.87R

$$

GAZ063-065-086>088-099>101-113>116-118-119-134>141-150-290000-
...SOUTHEAST GEORGIA...

CITY           SKY/WX    TMP DP  RH WIND       PRES   REMARKS
SAVANNAH ARPT  CLOUDY    82  56  40 W8        29.92R
HUNTER AAF     CLOUDY    82  62  50 W5        29.90R
FORT STEWART   CLOUDY    79  59  50 SW9       29.91R
STATESBORO     CLEAR     80  63  54 SW6       29.92S
SYLVANIA       CLEAR    N/A N/A N/A W5        29.93R
CLAXTON        FAIR      78  71  80 CALM      29.94R

...CSRA...CENTRAL AND FAR SOUTHEAST GEORGIA...

CITY           SKY/WX    TMP DP  RH WIND       PRES   REMARKS
THOMSON        PTCLDY    80  56  44 N5        29.97R
AUGUSTA-BUSH   PTCLDY    83  59  44 NW6       29.89R
AUGUSTA-DANIEL CLEAR     82  55  39 W5        29.91R
SWAINSBORO     FAIR      81  59  47 W3        29.94R
VIDALIA        PTCLDY    81  61  50 SW5       29.94S
EASTMAN        FAIR      82  42  24 W6        29.97R
HAZLEHURST     FAIR      82  58  44 SW5       29.94R
ALMA           CLEAR     81  61  50 SW5       29.95R
WAYCROSS       CLEAR     82  65  55 W7        29.96R
JESUP          FAIR      81  57  44 W3        29.95S
BAXLEY         FAIR      81  64  57 CALM      29.94S
BRUNSWICK      CLEAR     79  64  61 SE8       29.95S
SAINT SIMONS   CLEAR     72  64  76 S13       29.95S

$$

SCZ027-028-034-036>038-045-046-048>050-GAZ119-141-290000-
...LAKE AND SUPPLEMENTAL COASTAL OBSERVATIONS...

STATION/POSITION TIME  TEMP    WIND        PRES    WAVE   SWELL
                       AIR SEA DIR/SP/G            HT/PER HT/PER/DIR
                 (UTC) (F)     (DEG/KT/KT) (MB)    (FT/S) (FT/S/D)
WINYAH BAY       2230   73     220/ 11     1011.0F
LAKE MURRAY      2320   79     280/  9/ 14 1011.5R
ACE BASIN NERRS  2230   72     220/  3     1013.0R
FORT PULASKI     2300   71 66  220/  9/ 12 1013.7
SAPELO ISLAND    2300   75     160/  9     1014.0

$$

ANZ835-935-AMZ111-154-330-350-352-354-370-450-454-472-290000-
...C-MAN AND BUOY OBSERVATIONS...

STATION/POSITION TIME  TEMP    WIND        PRES    WAVE   SWELL
                       AIR SEA DIR/SP/G            HT/PER HT/PER/DIR
                 (UTC) (F)     (DEG/KT/KT) (MB)    (FT/S) (FT/S/D)
BUOY 41004       2250   72 72  210/ 16/ 17 1012.3R   5/11   5/130/11
BUOY 41008       2250   67 65  170/ 14/ 16 1013.4F   4/11   3/ 90/11
FOLLY BEACH CMAN 2300   67     300/  7/ 11 1014.4R
CAPERS NEARSHORE 2308   65     260/ 12/ 16 1013.0R
FRIPP NEARSHORE  2308   69 64  240/ 14/ 23 1013.9R


STATION/POSITION TIME  TEMP    WIND        PRES    WAVE   SWELL
                       AIR SEA DIR/SP/G            HT/PER HT/PER/DIR
                 (UTC) (F)     (DEG/KT/KT) (MB)    (FT/S) (FT/S/D)
5E ST. MARYS GA  2300      68                N/A     4/11   2/120/11
FRYING PAN BUOY  2310   74 74  220/ 21/ 25 1012.1
BUOY 41025       2150   72 75  220/ 12/ 14 1012.2    5/10   3/140/10
CAPE LOOKOUT NC  2300   68     220/  8/ 14 1011.5F
BUOY 41002       2250   70 74  190/  8/ 10 1015.4F   6/10   7/ 90/10
BUOY 41010       NOT AVBL
ST AUGUSTINE FL  2300   71 69  160/ 14/ 15 1015.7R


$$




USA.gov is the U.S. government's official web portal to all federal, state and local government web resources and services.